Time,TemperatureF,DewpointF,PressureIn,WindDirection,WindDirectionDegrees,WindSpeedMPH,WindSpeedGustMPH,Humidity,HourlyPrecipIn,Conditions,Clouds,dailyrainin,SoftwareType,DateUTC
2013-01-18 00:01:00,32.0,31.5,30.29,South,180,0.0,0.0,98,0.00,,,0.00,WUHU216HW,2013-01-18 08:01:00,
2013-01-18 00:06:00,32.0,31.5,30.29,South,180,0.0,0.0,98,0.00,,,0.00,WUHU216HW,2013-01-18 08:06:00,
2013-01-18 00:11:00,32.0,31.5,30.29,South,180,0.0,0.0,98,0.00,,,0.00,WUHU216HW,2013-01-18 08:11:00,
2013-01-18 00:16:00,32.0,31.5,30.29,South,180,0.0,0.0,98,0.00,,,0.00,WUHU216HW,2013-01-18 08:16:00,
2013-01-18 00:21:00,32.0,31.5,30.29,South,180,0.0,0.0,98,0.00,,,0.00,WUHU216HW,2013-01-18 08:21:00,
2013-01-18 00:26:00,32.2,31.7,30.29,South,180,0.0,0.0,98,0.00,,,0.00,WUHU216HW,2013-01-18 08:26:00,
2013-01-18 00:31:00,32.2,31.7,30.29,South,180,0.0,0.0,98,0.00,,,0.00,WUHU216HW,2013-01-18 08:31:00,
2013-01-18 00:36:00,32.3,31.8,30.29,South,180,0.0,0.0,98,0.00,,,0.00,WUHU216HW,2013-01-18 08:36:00,
2013-01-18 00:41:00,32.3,31.8,30.29,South,180,0.0,0.0,98,0.00,,,0.00,WUHU216HW,2013-01-18 08:41:00,
2013-01-18 00:46:00,32.3,31.8,30.29,South,180,0.0,0.0,98,0.00,,,0.00,WUHU216HW,2013-01-18 08:46:00,
2013-01-18 00:52:00,32.3,31.8,30.29,South,180,0.0,0.0,98,0.00,,,0.00,WUHU216HW,2013-01-18 08:52:00,
2013-01-18 00:57:00,32.3,31.8,30.29,South,180,0.0,0.0,98,0.00,,,0.00,WUHU216HW,2013-01-18 08:57:00,
2013-01-18 01:02:00,32.3,31.8,30.29,South,180,0.0,0.0,98,0.00,,,0.00,WUHU216HW,2013-01-18 09:02:00,
2013-01-18 01:07:00,32.3,31.8,30.29,South,180,0.0,0.0,98,0.00,,,0.00,WUHU216HW,2013-01-18 09:07:00,
2013-01-18 01:12:00,32.3,31.8,30.29,South,180,0.0,0.0,98,0.00,,,0.00,WUHU216HW,2013-01-18 09:12:00,
2013-01-18 01:17:00,32.3,31.8,30.29,South,180,0.0,0.0,98,0.00,,,0.00,WUHU216HW,2013-01-18 09:17:00,
2013-01-18 01:22:00,32.3,31.8,30.28,South,180,0.0,0.0,98,0.00,,,0.00,WUHU216HW,2013-01-18 09:22:00,
2013-01-18 01:27:00,32.3,31.8,30.29,South,180,0.0,0.0,98,0.00,,,0.00,WUHU216HW,2013-01-18 09:27:00,
2013-01-18 01:32:00,32.3,31.8,30.28,South,180,0.0,0.0,98,0.00,,,0.00,WUHU216HW,2013-01-18 09:32:00,
2013-01-18 01:37:00,32.3,31.8,30.28,South,180,0.0,0.0,98,0.00,,,0.00,WUHU216HW,2013-01-18 09:37:00,
2013-01-18 01:42:00,32.3,31.8,30.28,South,180,0.0,0.0,98,0.00,,,0.00,WUHU216HW,2013-01-18 09:42:00,
2013-01-18 01:47:00,32.2,31.7,30.28,South,180,0.0,0.0,98,0.00,,,0.00,WUHU216HW,2013-01-18 09:47:00,
2013-01-18 01:52:00,32.2,31.7,30.28,South,180,0.0,0.0,98,0.00,,,0.00,WUHU216HW,2013-01-18 09:52:00,
2013-01-18 01:57:00,32.3,31.8,30.28,South,180,0.0,0.0,98,0.00,,,0.00,WUHU216HW,2013-01-18 09:57:00,
2013-01-18 02:03:00,32.3,31.8,30.28,South,180,0.0,0.0,98,0.00,,,0.00,WUHU216HW,2013-01-18 10:03:00,
2013-01-18 02:08:00,32.3,31.8,30.28,South,180,0.0,0.0,98,0.00,,,0.00,WUHU216HW,2013-01-18 10:08:00,
2013-01-18 02:13:00,32.3,31.8,30.28,South,180,0.0,0.0,98,0.00,,,0.00,WUHU216HW,2013-01-18 10:13:00,
2013-01-18 02:18:00,32.2,31.7,30.29,South,180,0.0,0.0,98,0.00,,,0.00,WUHU216HW,2013-01-18 10:18:00,
2013-01-18 02:23:00,32.0,31.5,30.29,South,180,0.0,0.0,98,0.00,,,0.00,WUHU216HW,2013-01-18 10:23:00,
2013-01-18 02:28:00,32.0,31.5,30.29,South,180,0.0,0.0,98,0.00,,,0.00,WUHU216HW,2013-01-18 10:28:00,
2013-01-18 02:33:00,31.9,31.3,30.29,South,180,0.0,0.0,98,0.00,,,0.00,WUHU216HW,2013-01-18 10:33:00,
2013-01-18 02:38:00,31.9,31.3,30.29,South,180,0.0,0.0,98,0.00,,,0.00,WUHU216HW,2013-01-18 10:38:00,
2013-01-18 02:43:00,31.7,31.1,30.28,South,180,0.0,0.0,98,0.00,,,0.00,WUHU216HW,2013-01-18 10:43:00,
2013-01-18 02:48:00,31.7,31.1,30.28,South,180,0.0,0.0,98,0.00,,,0.00,WUHU216HW,2013-01-18 10:48:00,
2013-01-18 02:53:00,31.7,31.1,30.29,South,180,0.0,0.0,98,0.00,,,0.00,WUHU216HW,2013-01-18 10:53:00,
2013-01-18 02:58:00,31.7,31.1,30.28,South,180,0.0,0.0,98,0.00,,,0.00,WUHU216HW,2013-01-18 10:58:00,
2013-01-18 03:03:00,31.7,31.1,30.29,South,180,0.0,0.0,98,0.00,,,0.00,WUHU216HW,2013-01-18 11:03:00,
2013-01-18 03:08:00,31.9,31.3,30.29,South,180,0.0,0.0,98,0.00,,,0.00,WUHU216HW,2013-01-18 11:08:00,
2013-01-18 03:13:00,32.0,31.5,30.29,South,180,0.0,0.0,98,0.00,,,0.00,WUHU216HW,2013-01-18 11:13:00,
2013-01-18 03:18:00,32.0,31.5,30.29,South,180,0.0,0.0,98,0.00,,,0.00,WUHU216HW,2013-01-18 11:18:00,
2013-01-18 03:23:00,32.0,31.5,30.29,South,180,0.0,0.0,98,0.00,,,0.00,WUHU216HW,2013-01-18 11:23:00,
2013-01-18 03:28:00,32.0,31.5,30.29,South,180,0.0,0.0,98,0.00,,,0.00,WUHU216HW,2013-01-18 11:28:00,
2013-01-18 03:33:00,32.0,31.5,30.29,South,180,0.0,0.0,98,0.00,,,0.00,WUHU216HW,2013-01-18 11:33:00,
2013-01-18 03:38:00,32.0,31.5,30.29,South,180,0.0,0.0,98,0.00,,,0.00,WUHU216HW,2013-01-18 11:38:00,
2013-01-18 03:43:00,32.0,31.5,30.28,South,180,0.0,0.0,98,0.00,,,0.00,WUHU216HW,2013-01-18 11:43:00,
2013-01-18 03:49:00,31.9,31.3,30.28,South,180,0.0,0.0,98,0.00,,,0.00,WUHU216HW,2013-01-18 11:49:00,
2013-01-18 03:54:00,31.9,31.3,30.27,South,180,0.0,0.0,98,0.00,,,0.00,WUHU216HW,2013-01-18 11:54:00,
2013-01-18 03:59:00,31.9,31.3,30.28,South,180,0.0,0.0,98,0.00,,,0.00,WUHU216HW,2013-01-18 11:59:00,
2013-01-18 04:04:00,31.9,31.3,30.28,SSW,203,0.0,0.0,98,0.00,,,0.00,WUHU216HW,2013-01-18 12:04:00,
2013-01-18 04:09:00,31.7,31.1,30.28,SSW,203,0.0,0.0,98,0.00,,,0.00,WUHU216HW,2013-01-18 12:09:00,
2013-01-18 04:14:00,31.7,31.1,30.28,SSW,203,0.0,0.0,98,0.00,,,0.00,WUHU216HW,2013-01-18 12:14:00,
2013-01-18 04:19:00,31.7,31.1,30.28,West,270,0.0,0.0,98,0.00,,,0.00,WUHU216HW,2013-01-18 12:19:00,
2013-01-18 04:24:00,31.7,31.1,30.27,West,270,0.0,0.0,98,0.00,,,0.00,WUHU216HW,2013-01-18 12:24:00,
2013-01-18 04:29:00,31.7,31.1,30.28,West,270,0.0,0.0,98,0.00,,,0.00,WUHU216HW,2013-01-18 12:29:00,
2013-01-18 04:34:00,31.7,31.1,30.28,West,270,0.0,0.0,98,0.00,,,0.00,WUHU216HW,2013-01-18 12:34:00,
2013-01-18 04:39:00,31.7,31.1,30.27,West,270,0.0,0.0,98,0.00,,,0.00,WUHU216HW,2013-01-18 12:39:00,
2013-01-18 04:45:00,31.7,31.1,30.27,West,270,0.0,0.0,98,0.00,,,0.00,WUHU216HW,2013-01-18 12:45:00,
2013-01-18 04:50:00,31.7,31.1,30.27,West,270,0.0,0.0,98,0.00,,,0.00,WUHU216HW,2013-01-18 12:50:00,
2013-01-18 04:55:00,31.7,31.1,30.27,West,270,0.0,0.0,98,0.00,,,0.00,WUHU216HW,2013-01-18 12:55:00,
2013-01-18 05:00:00,31.7,31.1,30.27,West,270,0.0,0.0,98,0.00,,,0.00,WUHU216HW,2013-01-18 13:00:00,
2013-01-18 05:05:00,31.7,31.1,30.27,West,270,0.0,0.0,98,0.00,,,0.00,WUHU216HW,2013-01-18 13:05:00,
2013-01-18 05:10:00,31.9,31.3,30.27,West,270,0.0,0.0,98,0.00,,,0.00,WUHU216HW,2013-01-18 13:10:00,
2013-01-18 05:15:00,31.9,31.3,30.27,West,270,0.0,0.0,98,0.00,,,0.00,WUHU216HW,2013-01-18 13:15:00,
2013-01-18 05:20:00,31.9,31.3,30.27,West,270,0.0,0.0,98,0.00,,,0.00,WUHU216HW,2013-01-18 13:20:00,
2013-01-18 05:25:00,31.9,31.3,30.27,West,270,0.0,0.0,98,0.00,,,0.00,WUHU216HW,2013-01-18 13:25:00,
2013-01-18 05:30:00,31.9,31.3,30.28,West,270,0.0,0.0,98,0.00,,,0.00,WUHU216HW,2013-01-18 13:30:00,
2013-01-18 05:35:00,31.9,31.3,30.27,West,270,0.0,0.0,98,0.00,,,0.00,WUHU216HW,2013-01-18 13:35:00,
2013-01-18 05:40:00,31.9,31.3,30.28,West,270,0.0,0.0,98,0.00,,,0.00,WUHU216HW,2013-01-18 13:40:00,
2013-01-18 05:45:00,31.9,31.3,30.28,West,270,0.0,0.0,98,0.00,,,0.00,WUHU216HW,2013-01-18 13:45:00,
2013-01-18 05:50:00,31.9,31.3,30.28,West,270,0.0,0.0,98,0.00,,,0.00,WUHU216HW,2013-01-18 13:50:00,
2013-01-18 05:56:00,31.9,31.3,30.28,West,270,0.0,0.0,98,0.00,,,0.00,WUHU216HW,2013-01-18 13:56:00,
2013-01-18 06:01:00,31.9,31.3,30.28,West,270,0.0,0.0,98,0.00,,,0.00,WUHU216HW,2013-01-18 14:01:00,
2013-01-18 06:06:00,31.7,31.1,30.28,West,270,0.0,0.0,98,0.00,,,0.00,WUHU216HW,2013-01-18 14:06:00,
2013-01-18 06:11:00,31.7,31.1,30.28,West,270,0.0,0.0,98,0.00,,,0.00,WUHU216HW,2013-01-18 14:11:00,
2013-01-18 06:16:00,31.7,31.1,30.28,West,270,0.0,0.0,98,0.00,,,0.00,WUHU216HW,2013-01-18 14:16:00,
2013-01-18 06:21:00,31.7,31.1,30.28,West,270,0.0,0.0,98,0.00,,,0.00,WUHU216HW,2013-01-18 14:21:00,
2013-01-18 06:26:00,31.5,30.9,30.28,West,270,0.0,0.0,98,0.00,,,0.00,WUHU216HW,2013-01-18 14:26:00,
2013-01-18 06:31:00,31.5,30.9,30.28,WNW,293,0.0,0.0,98,0.00,,,0.00,WUHU216HW,2013-01-18 14:31:00,
2013-01-18 06:36:00,31.5,30.9,30.28,WNW,293,0.0,0.0,98,0.00,,,0.00,WUHU216HW,2013-01-18 14:36:00,
2013-01-18 06:41:00,31.5,30.9,30.27,West,270,0.0,0.0,98,0.00,,,0.00,WUHU216HW,2013-01-18 14:41:00,
2013-01-18 06:46:00,31.5,30.9,30.27,West,270,0.0,0.0,98,0.00,,,0.00,WUHU216HW,2013-01-18 14:46:00,
2013-01-18 06:52:00,31.5,30.9,30.27,West,270,0.0,0.0,98,0.00,,,0.00,WUHU216HW,2013-01-18 14:52:00,
2013-01-18 06:57:00,31.5,30.9,30.27,West,270,0.0,0.0,98,0.00,,,0.00,WUHU216HW,2013-01-18 14:57:00,
2013-01-18 07:02:00,31.5,30.9,30.27,West,270,0.0,0.0,98,0.00,,,0.00,WUHU216HW,2013-01-18 15:02:00,
2013-01-18 07:07:00,31.5,30.9,30.27,West,270,0.0,0.0,98,0.00,,,0.00,WUHU216HW,2013-01-18 15:07:00,
2013-01-18 07:12:00,31.5,30.9,30.27,West,270,0.0,0.0,98,0.00,,,0.00,WUHU216HW,2013-01-18 15:12:00,
2013-01-18 07:17:00,31.5,30.9,30.27,West,270,0.0,0.0,98,0.00,,,0.00,WUHU216HW,2013-01-18 15:17:00,
2013-01-18 07:22:00,31.5,30.9,30.27,West,270,0.0,0.0,98,0.00,,,0.00,WUHU216HW,2013-01-18 15:22:00,
2013-01-18 07:27:00,31.5,30.9,30.28,West,270,0.0,0.0,98,0.00,,,0.00,WUHU216HW,2013-01-18 15:27:00,
2013-01-18 07:32:00,31.5,30.9,30.28,West,270,0.0,0.0,98,0.00,,,0.00,WUHU216HW,2013-01-18 15:32:00,
2013-01-18 07:37:00,31.5,30.9,30.28,West,270,0.0,0.0,98,0.00,,,0.00,WUHU216HW,2013-01-18 15:37:00,
2013-01-18 07:42:00,31.5,30.9,30.28,West,270,0.0,0.0,98,0.00,,,0.00,WUHU216HW,2013-01-18 15:42:00,
2013-01-18 07:47:00,31.7,31.1,30.28,West,270,0.0,0.0,98,0.00,,,0.00,WUHU216HW,2013-01-18 15:47:00,
2013-01-18 07:52:00,31.7,31.1,30.28,West,270,0.0,0.0,98,0.00,,,0.00,WUHU216HW,2013-01-18 15:52:00,
2013-01-18 07:57:00,31.7,31.1,30.28,West,270,0.0,0.0,98,0.00,,,0.00,WUHU216HW,2013-01-18 15:57:00,
2013-01-18 08:03:00,31.7,31.1,30.28,West,270,0.0,0.0,98,0.00,,,0.00,WUHU216HW,2013-01-18 16:03:00,
2013-01-18 08:08:00,31.7,31.1,30.28,West,270,0.0,0.0,98,0.00,,,0.00,WUHU216HW,2013-01-18 16:08:00,
2013-01-18 08:13:00,31.7,31.1,30.29,West,270,0.0,0.0,98,0.00,,,0.00,WUHU216HW,2013-01-18 16:13:00,
2013-01-18 08:18:00,31.9,31.3,30.29,West,270,0.0,0.0,98,0.00,,,0.00,WUHU216HW,2013-01-18 16:18:00,
2013-01-18 08:23:00,31.9,31.3,30.29,West,270,0.0,0.0,98,0.00,,,0.00,WUHU216HW,2013-01-18 16:23:00,
2013-01-18 08:28:00,31.9,31.3,30.29,West,270,0.0,0.0,98,0.00,,,0.00,WUHU216HW,2013-01-18 16:28:00,
2013-01-18 08:33:00,31.9,31.3,30.29,West,270,0.0,0.0,98,0.00,,,0.00,WUHU216HW,2013-01-18 16:33:00,
2013-01-18 08:38:00,31.9,31.3,30.30,West,270,0.0,0.0,98,0.00,,,0.00,WUHU216HW,2013-01-18 16:38:00,
2013-01-18 08:43:00,32.0,31.5,30.30,West,270,0.0,0.0,98,0.00,,,0.00,WUHU216HW,2013-01-18 16:43:00,
2013-01-18 08:48:00,32.0,31.5,30.29,West,270,0.0,0.0,98,0.00,,,0.00,WUHU216HW,2013-01-18 16:48:00,
2013-01-18 08:53:00,32.0,31.5,30.30,WNW,293,0.0,0.0,98,0.00,,,0.00,WUHU216HW,2013-01-18 16:53:00,
2013-01-18 08:59:00,32.2,31.6,30.30,WNW,293,0.0,0.0,98,0.00,,,0.00,WUHU216HW,2013-01-18 16:59:00,
2013-01-18 09:04:00,32.2,31.7,30.31,WNW,293,0.0,0.0,98,0.00,,,0.00,WUHU216HW,2013-01-18 17:04:00,
2013-01-18 09:09:00,32.4,31.9,30.31,WNW,293,0.0,0.0,98,0.00,,,0.00,WUHU216HW,2013-01-18 17:09:00,
2013-01-18 09:14:00,32.6,32.0,30.31,WNW,293,0.0,0.0,98,0.00,,,0.00,WUHU216HW,2013-01-18 17:14:00,
2013-01-18 09:19:00,32.7,32.2,30.31,West,270,0.0,0.0,98,0.00,,,0.00,WUHU216HW,2013-01-18 17:19:00,
2013-01-18 09:24:00,32.7,32.2,30.31,West,270,0.0,0.0,98,0.00,,,0.00,WUHU216HW,2013-01-18 17:24:00,
2013-01-18 09:29:00,32.7,32.2,30.31,West,270,0.0,0.0,98,0.00,,,0.00,WUHU216HW,2013-01-18 17:29:00,
2013-01-18 09:34:00,32.9,32.3,30.31,West,270,0.0,0.0,98,0.00,,,0.00,WUHU216HW,2013-01-18 17:34:00,
2013-01-18 09:39:00,32.9,32.4,30.31,West,270,0.0,0.0,98,0.00,,,0.00,WUHU216HW,2013-01-18 17:39:00,
2013-01-18 09:44:00,33.3,32.8,30.31,West,270,0.0,0.0,98,0.00,,,0.00,WUHU216HW,2013-01-18 17:44:00,
2013-01-18 09:49:00,33.3,32.7,30.31,WNW,293,0.0,0.0,98,0.00,,,0.00,WUHU216HW,2013-01-18 17:49:00,
2013-01-18 09:54:00,33.2,32.7,30.32,WNW,293,0.0,0.0,98,0.00,,,0.00,WUHU216HW,2013-01-18 17:54:00,
2013-01-18 09:59:00,33.4,32.9,30.31,West,270,0.0,0.0,98,0.00,,,0.00,WUHU216HW,2013-01-18 17:59:00,
2013-01-18 10:04:00,33.6,33.1,30.31,West,270,0.0,0.0,98,0.00,,,0.00,WUHU216HW,2013-01-18 18:04:00,
2013-01-18 10:09:00,33.6,33.0,30.31,NW,315,0.0,0.0,98,0.00,,,0.00,WUHU216HW,2013-01-18 18:09:00,
2013-01-18 10:15:00,33.6,33.1,30.31,NNW,338,0.0,0.0,98,0.00,,,0.00,WUHU216HW,2013-01-18 18:15:00,
2013-01-18 10:20:00,33.6,33.1,30.31,WNW,293,0.0,0.0,98,0.00,,,0.00,WUHU216HW,2013-01-18 18:20:00,
2013-01-18 10:25:00,34.0,33.5,30.32,WNW,293,0.0,0.0,98,0.00,,,0.00,WUHU216HW,2013-01-18 18:25:00,
2013-01-18 10:30:00,34.0,33.4,30.31,NW,315,0.0,0.0,98,0.00,,,0.00,WUHU216HW,2013-01-18 18:30:00,
2013-01-18 10:35:00,34.1,33.6,30.31,NW,315,0.0,0.0,98,0.00,,,0.00,WUHU216HW,2013-01-18 18:35:00,
2013-01-18 10:40:00,34.1,33.6,30.32,NW,315,0.0,0.0,98,0.00,,,0.00,WUHU216HW,2013-01-18 18:40:00,
2013-01-18 10:45:00,34.1,33.6,30.31,NW,315,0.0,0.0,98,0.00,,,0.00,WUHU216HW,2013-01-18 18:45:00,
2013-01-18 10:50:00,34.4,34.1,30.32,NW,315,0.0,0.0,99,0.00,,,0.00,WUHU216HW,2013-01-18 18:50:00,
2013-01-18 10:55:00,34.3,34.1,30.32,NW,315,0.0,0.0,99,0.00,,,0.00,WUHU216HW,2013-01-18 18:55:00,
2013-01-18 11:00:00,34.5,34.3,30.32,NW,315,0.0,0.0,99,0.00,,,0.00,WUHU216HW,2013-01-18 19:00:00,
2013-01-18 11:05:00,34.7,34.4,30.31,NW,315,0.0,0.0,99,0.00,,,0.00,WUHU216HW,2013-01-18 19:05:00,
2013-01-18 11:10:00,34.9,34.6,30.31,NW,315,0.0,0.0,99,0.00,,,0.00,WUHU216HW,2013-01-18 19:10:00,
2013-01-18 11:15:00,35.0,34.4,30.31,NW,315,0.0,0.0,98,0.00,,,0.00,WUHU216HW,2013-01-18 19:15:00,
2013-01-18 11:20:00,35.0,34.5,30.31,SW,225,0.0,0.0,98,0.00,,,0.00,WUHU216HW,2013-01-18 19:20:00,
2013-01-18 11:25:00,34.8,34.3,30.30,SW,225,0.0,0.0,98,0.00,,,0.00,WUHU216HW,2013-01-18 19:25:00,
2013-01-18 11:30:00,34.8,34.3,30.30,SW,225,0.0,0.0,98,0.00,,,0.00,WUHU216HW,2013-01-18 19:30:00,
2013-01-18 11:36:00,34.8,34.3,30.30,SW,225,0.0,0.0,98,0.00,,,0.00,WUHU216HW,2013-01-18 19:36:00,
2013-01-18 11:41:00,35.0,34.4,30.30,SW,225,0.0,0.0,98,0.00,,,0.00,WUHU216HW,2013-01-18 19:41:00,
2013-01-18 11:46:00,35.0,34.4,30.30,SW,225,0.0,0.0,98,0.00,,,0.00,WUHU216HW,2013-01-18 19:46:00,
2013-01-18 11:51:00,34.9,34.4,30.31,WSW,248,0.0,0.0,98,0.00,,,0.00,WUHU216HW,2013-01-18 19:51:00,
2013-01-18 11:56:00,34.9,34.4,30.30,WSW,248,0.0,0.0,98,0.00,,,0.00,WUHU216HW,2013-01-18 19:56:00,
2013-01-18 12:01:00,34.9,34.1,30.30,WSW,248,0.0,0.0,97,0.00,,,0.00,WUHU216HW,2013-01-18 20:01:00,
2013-01-18 12:06:00,34.9,34.1,30.30,WSW,248,0.0,0.0,97,0.00,,,0.00,WUHU216HW,2013-01-18 20:06:00,
2013-01-18 12:11:00,34.9,34.1,30.31,West,270,0.0,0.0,97,0.00,,,0.00,WUHU216HW,2013-01-18 20:11:00,
2013-01-18 12:16:00,34.9,34.1,30.31,WNW,293,0.0,0.0,97,0.00,,,0.00,WUHU216HW,2013-01-18 20:16:00,
2013-01-18 12:21:00,34.7,33.9,30.31,West,270,1.4,2.2,97,0.00,,,0.00,WUHU216HW,2013-01-18 20:21:00,
2013-01-18 12:26:00,34.5,33.7,30.31,WSW,248,0.0,2.9,97,0.00,,,0.00,WUHU216HW,2013-01-18 20:26:00,
2013-01-18 12:31:00,34.6,33.8,30.31,WNW,293,0.0,2.9,97,0.00,,,0.00,WUHU216HW,2013-01-18 20:31:00,
2013-01-18 12:36:00,34.4,33.6,30.31,West,270,0.0,0.0,97,0.00,,,0.00,WUHU216HW,2013-01-18 20:36:00,
2013-01-18 12:41:00,34.4,33.6,30.31,WNW,293,2.3,2.4,97,0.00,,,0.00,WUHU216HW,2013-01-18 20:41:00,
2013-01-18 12:46:00,34.4,33.6,30.31,WNW,293,0.0,3.3,97,0.00,,,0.00,WUHU216HW,2013-01-18 20:46:00,
2013-01-18 12:51:00,34.4,33.6,30.31,WSW,248,0.0,3.3,97,0.00,,,0.00,WUHU216HW,2013-01-18 20:51:00,
2013-01-18 12:56:00,34.4,33.6,30.31,WSW,248,0.0,0.0,97,0.00,,,0.00,WUHU216HW,2013-01-18 20:56:00,
2013-01-18 13:01:00,34.6,33.8,30.30,NW,315,0.0,0.0,97,0.00,,,0.00,WUHU216HW,2013-01-18 21:01:00,
2013-01-18 13:06:00,34.4,33.6,30.31,WSW,248,0.0,2.2,97,0.00,,,0.00,WUHU216HW,2013-01-18 21:06:00,
2013-01-18 13:11:00,34.4,33.6,30.30,West,270,0.0,2.2,97,0.00,,,0.00,WUHU216HW,2013-01-18 21:11:00,
2013-01-18 13:17:00,34.6,33.8,30.31,WNW,293,0.0,0.0,97,0.00,,,0.00,WUHU216HW,2013-01-18 21:17:00,
2013-01-18 13:22:00,34.6,33.8,30.30,NW,315,0.0,2.2,97,0.00,,,0.00,WUHU216HW,2013-01-18 21:22:00,
2013-01-18 13:27:00,34.4,33.6,30.31,West,270,0.0,2.2,97,0.00,,,0.00,WUHU216HW,2013-01-18 21:27:00,
2013-01-18 13:32:00,34.6,33.8,30.30,West,270,0.0,0.0,97,0.00,,,0.00,WUHU216HW,2013-01-18 21:32:00,
2013-01-18 13:37:00,34.6,33.8,30.30,WNW,293,0.0,0.0,97,0.00,,,0.00,WUHU216HW,2013-01-18 21:37:00,
2013-01-18 13:42:00,34.6,33.8,30.30,NNE,23,0.0,0.0,97,0.00,,,0.00,WUHU216HW,2013-01-18 21:42:00,
2013-01-18 13:47:00,34.8,33.7,30.30,WNW,293,0.0,0.0,96,0.00,,,0.00,WUHU216HW,2013-01-18 21:47:00,
2013-01-18 13:52:00,34.8,33.7,30.30,West,270,0.0,0.0,96,0.00,,,0.00,WUHU216HW,2013-01-18 21:52:00,
2013-01-18 13:57:00,34.8,33.7,30.30,NNW,338,0.0,0.0,96,0.00,,,0.00,WUHU216HW,2013-01-18 21:57:00,
2013-01-18 14:02:00,34.6,33.5,30.31,NNW,338,0.0,0.0,96,0.00,,,0.00,WUHU216HW,2013-01-18 22:02:00,
2013-01-18 14:07:00,34.6,33.5,30.30,NNW,338,0.0,0.0,96,0.00,,,0.00,WUHU216HW,2013-01-18 22:07:00,
2013-01-18 14:12:00,34.8,33.7,30.30,NNW,338,0.0,0.0,96,0.00,,,0.00,WUHU216HW,2013-01-18 22:12:00,
2013-01-18 14:17:00,34.8,33.7,30.30,NNW,338,0.0,0.0,96,0.00,,,0.00,WUHU216HW,2013-01-18 22:17:00,
2013-01-18 14:22:00,34.9,33.8,30.30,North,0,0.0,0.0,96,0.00,,,0.00,WUHU216HW,2013-01-18 22:22:00,
2013-01-18 14:27:00,34.9,33.8,30.30,North,0,0.0,0.0,96,0.00,,,0.00,WUHU216HW,2013-01-18 22:27:00,
2013-01-18 14:32:00,34.9,33.8,30.30,North,0,0.0,0.0,96,0.00,,,0.00,WUHU216HW,2013-01-18 22:32:00,
2013-01-18 14:37:00,34.8,33.7,30.30,North,0,0.0,0.8,96,0.00,,,0.00,WUHU216HW,2013-01-18 22:37:00,
2013-01-18 14:42:00,34.9,33.9,30.31,NNW,338,0.0,0.8,96,0.00,,,0.00,WUHU216HW,2013-01-18 22:42:00,
2013-01-18 14:48:00,34.9,33.9,30.30,NNW,338,0.0,0.0,96,0.00,,,0.00,WUHU216HW,2013-01-18 22:48:00,
2013-01-18 14:53:00,35.1,34.1,30.31,NNW,338,0.0,0.0,96,0.00,,,0.00,WUHU216HW,2013-01-18 22:53:00,
2013-01-18 14:58:00,34.9,33.9,30.30,North,0,0.0,1.3,96,0.00,,,0.00,WUHU216HW,2013-01-18 22:58:00,
2013-01-18 15:03:00,35.0,33.9,30.30,North,0,0.0,1.3,96,0.00,,,0.00,WUHU216HW,2013-01-18 23:03:00,
2013-01-18 15:08:00,35.0,33.9,30.31,North,0,0.0,0.0,96,0.00,,,0.00,WUHU216HW,2013-01-18 23:08:00,
2013-01-18 15:13:00,35.2,34.1,30.31,West,270,0.0,0.0,96,0.00,,,0.00,WUHU216HW,2013-01-18 23:13:00,
2013-01-18 15:18:00,35.2,34.1,30.31,West,270,0.0,0.0,96,0.00,,,0.00,WUHU216HW,2013-01-18 23:18:00,
2013-01-18 15:23:00,35.2,34.1,30.31,NW,315,0.0,0.0,96,0.00,,,0.00,WUHU216HW,2013-01-18 23:23:00,
2013-01-18 15:28:00,35.2,34.1,30.31,West,270,0.0,2.0,96,0.00,,,0.00,WUHU216HW,2013-01-18 23:28:00,
2013-01-18 15:33:00,35.2,34.2,30.31,West,270,0.0,2.0,96,0.00,,,0.00,WUHU216HW,2013-01-18 23:33:00,
2013-01-18 15:38:00,35.0,34.0,30.31,West,270,0.0,0.0,96,0.00,,,0.00,WUHU216HW,2013-01-18 23:38:00,
2013-01-18 15:43:00,35.1,34.0,30.31,NNW,338,0.0,0.0,96,0.00,,,0.00,WUHU216HW,2013-01-18 23:43:00,
2013-01-18 15:48:00,35.0,33.6,30.31,NNE,23,0.0,0.0,95,0.00,,,0.00,WUHU216HW,2013-01-18 23:48:00,
2013-01-18 15:53:00,35.0,33.7,30.31,NNE,23,0.0,0.0,95,0.00,,,0.00,WUHU216HW,2013-01-18 23:53:00,
2013-01-18 15:59:00,34.8,33.5,30.31,NNW,338,0.0,0.0,95,0.00,,,0.00,WUHU216HW,2013-01-18 23:59:00,
2013-01-18 16:04:00,34.8,33.5,30.32,WNW,293,0.0,0.0,95,0.00,,,0.00,WUHU216HW,2013-01-19 00:04:00,
2013-01-18 16:09:00,34.9,33.5,30.31,WNW,293,0.0,0.0,95,0.00,,,0.00,WUHU216HW,2013-01-19 00:09:00,
2013-01-18 16:14:00,34.9,33.5,30.31,WNW,293,0.0,0.0,95,0.00,,,0.00,WUHU216HW,2013-01-19 00:14:00,
2013-01-18 16:19:00,34.9,33.6,30.32,WNW,293,0.0,0.0,95,0.00,,,0.00,WUHU216HW,2013-01-19 00:19:00,
2013-01-18 16:24:00,34.7,33.4,30.31,North,0,0.0,0.0,95,0.00,,,0.00,WUHU216HW,2013-01-19 00:24:00,
2013-01-18 16:29:00,34.7,33.4,30.31,NNW,338,0.0,0.0,95,0.00,,,0.00,WUHU216HW,2013-01-19 00:29:00,
2013-01-18 16:34:00,34.6,33.5,30.31,NNW,338,0.0,0.0,96,0.00,,,0.00,WUHU216HW,2013-01-19 00:34:00,
2013-01-18 16:39:00,34.6,33.5,30.31,WNW,293,0.0,0.0,96,0.00,,,0.00,WUHU216HW,2013-01-19 00:39:00,
2013-01-18 16:44:00,34.6,33.5,30.31,WNW,293,0.0,0.0,96,0.00,,,0.00,WUHU216HW,2013-01-19 00:44:00,
2013-01-18 16:49:00,34.6,33.6,30.31,WNW,293,0.0,0.0,96,0.00,,,0.00,WUHU216HW,2013-01-19 00:49:00,
2013-01-18 16:54:00,34.4,33.4,30.31,North,0,0.0,0.0,96,0.00,,,0.00,WUHU216HW,2013-01-19 00:54:00,
2013-01-18 16:59:00,34.7,33.6,30.31,North,0,0.0,0.0,96,0.00,,,0.00,WUHU216HW,2013-01-19 00:59:00,
2013-01-18 17:05:00,34.5,33.4,30.31,NW,315,0.0,0.0,96,0.00,,,0.00,WUHU216HW,2013-01-19 01:05:00,
2013-01-18 17:10:00,34.5,33.5,30.31,NW,315,0.0,0.0,96,0.00,,,0.00,WUHU216HW,2013-01-19 01:10:00,
2013-01-18 17:15:00,34.5,33.5,30.31,NW,315,0.0,0.0,96,0.00,,,0.00,WUHU216HW,2013-01-19 01:15:00,
2013-01-18 17:20:00,34.6,33.5,30.31,NW,315,0.0,0.0,96,0.00,,,0.00,WUHU216HW,2013-01-19 01:20:00,
2013-01-18 17:25:00,34.6,33.5,30.31,NW,315,0.0,0.0,96,0.00,,,0.00,WUHU216HW,2013-01-19 01:25:00,
2013-01-18 17:30:00,34.6,33.6,30.31,NW,315,0.0,0.0,96,0.00,,,0.00,WUHU216HW,2013-01-19 01:30:00,
2013-01-18 17:35:00,34.6,33.3,30.31,NW,315,0.0,0.0,95,0.00,,,0.00,WUHU216HW,2013-01-19 01:35:00,
2013-01-18 17:40:00,34.7,33.3,30.31,NW,315,0.0,0.0,95,0.00,,,0.00,WUHU216HW,2013-01-19 01:40:00,
2013-01-18 17:45:00,34.7,33.6,30.31,NW,315,0.0,0.0,96,0.00,,,0.00,WUHU216HW,2013-01-19 01:45:00,
2013-01-18 17:50:00,34.7,33.7,30.31,NW,315,0.0,0.0,96,0.00,,,0.00,WUHU216HW,2013-01-19 01:50:00,
2013-01-18 17:55:00,34.7,33.7,30.31,NW,315,0.0,0.0,96,0.00,,,0.00,WUHU216HW,2013-01-19 01:55:00,
2013-01-18 18:01:00,34.8,33.7,30.31,NW,315,0.0,0.0,96,0.00,,,0.00,WUHU216HW,2013-01-19 02:01:00,
2013-01-18 18:06:00,34.7,33.6,30.31,NNW,338,0.0,0.0,96,0.00,,,0.00,WUHU216HW,2013-01-19 02:06:00,
2013-01-18 18:11:00,34.7,33.7,30.32,NNW,338,0.0,0.0,96,0.00,,,0.00,WUHU216HW,2013-01-19 02:11:00,
2013-01-18 18:16:00,34.7,33.7,30.31,NW,315,0.0,2.6,96,0.00,,,0.00,WUHU216HW,2013-01-19 02:16:00,
2013-01-18 18:21:00,34.9,33.8,30.31,WNW,293,0.0,2.6,96,0.00,,,0.00,WUHU216HW,2013-01-19 02:21:00,
2013-01-18 18:26:00,34.9,33.8,30.31,NW,315,0.0,0.0,96,0.00,,,0.00,WUHU216HW,2013-01-19 02:26:00,
2013-01-18 18:31:00,34.8,33.8,30.31,North,0,0.0,0.0,96,0.00,,,0.00,WUHU216HW,2013-01-19 02:31:00,
2013-01-18 18:36:00,34.9,33.8,30.32,NE,45,0.0,0.0,96,0.00,,,0.00,WUHU216HW,2013-01-19 02:36:00,
2013-01-18 18:41:00,34.7,33.6,30.31,NE,45,0.0,0.0,96,0.00,,,0.00,WUHU216HW,2013-01-19 02:41:00,
2013-01-18 18:47:00,34.7,33.6,30.31,WNW,293,0.0,0.0,96,0.00,,,0.00,WUHU216HW,2013-01-19 02:47:00,
2013-01-18 18:52:00,34.7,33.6,30.32,NW,315,0.0,0.0,96,0.00,,,0.00,WUHU216HW,2013-01-19 02:52:00,
2013-01-18 18:57:00,34.7,33.6,30.32,NW,315,0.0,0.0,96,0.00,,,0.00,WUHU216HW,2013-01-19 02:57:00,
2013-01-18 19:02:00,34.7,33.6,30.32,NNW,338,0.0,0.0,96,0.00,,,0.00,WUHU216HW,2013-01-19 03:02:00,
2013-01-18 19:07:00,34.7,33.6,30.32,NNW,338,0.0,0.0,96,0.00,,,0.00,WUHU216HW,2013-01-19 03:07:00,
2013-01-18 19:12:00,34.5,33.4,30.32,North,0,0.0,0.0,96,0.00,,,0.00,WUHU216HW,2013-01-19 03:12:00,
2013-01-18 19:17:00,34.5,33.4,30.32,North,0,0.0,0.0,96,0.00,,,0.00,WUHU216HW,2013-01-19 03:17:00,
2013-01-18 19:22:00,34.7,33.6,30.32,North,0,0.0,0.0,96,0.00,,,0.00,WUHU216HW,2013-01-19 03:22:00,
2013-01-18 19:27:00,34.7,33.6,30.32,North,0,0.0,0.0,96,0.00,,,0.00,WUHU216HW,2013-01-19 03:27:00,
2013-01-18 19:32:00,34.7,33.6,30.32,NNW,338,0.0,0.0,96,0.00,,,0.00,WUHU216HW,2013-01-19 03:32:00,
2013-01-18 19:37:00,34.7,33.6,30.32,NNW,338,0.0,0.0,96,0.00,,,0.00,WUHU216HW,2013-01-19 03:37:00,
2013-01-18 19:43:00,34.5,33.4,30.32,NW,315,0.0,0.0,96,0.00,,,0.00,WUHU216HW,2013-01-19 03:43:00,
2013-01-18 19:48:00,34.5,33.4,30.32,NW,315,0.0,0.0,96,0.00,,,0.00,WUHU216HW,2013-01-19 03:48:00,
2013-01-18 19:53:00,34.5,33.4,30.32,NW,315,0.0,0.0,96,0.00,,,0.00,WUHU216HW,2013-01-19 03:53:00,
2013-01-18 19:58:00,34.5,33.4,30.32,NW,315,0.0,0.0,96,0.00,,,0.00,WUHU216HW,2013-01-19 03:58:00,
2013-01-18 20:03:00,34.5,33.4,30.32,NW,315,0.0,0.0,96,0.00,,,0.00,WUHU216HW,2013-01-19 04:03:00,
2013-01-18 20:08:00,34.1,33.0,30.32,NNW,338,0.0,0.0,96,0.00,,,0.00,WUHU216HW,2013-01-19 04:08:00,
2013-01-18 20:13:00,34.1,33.0,30.32,NNW,338,0.0,0.0,96,0.00,,,0.00,WUHU216HW,2013-01-19 04:13:00,
2013-01-18 20:18:00,34.0,32.9,30.32,NNE,23,0.0,1.3,96,0.00,,,0.00,WUHU216HW,2013-01-19 04:18:00,
2013-01-18 20:23:00,33.8,32.8,30.32,North,0,0.0,3.5,96,0.00,,,0.00,WUHU216HW,2013-01-19 04:23:00,
2013-01-18 20:28:00,34.0,32.9,30.32,North,0,0.0,3.5,96,0.00,,,0.00,WUHU216HW,2013-01-19 04:28:00,
2013-01-18 20:33:00,33.8,32.8,30.32,North,0,0.0,0.0,96,0.00,,,0.00,WUHU216HW,2013-01-19 04:33:00,
2013-01-18 20:39:00,34.0,33.2,30.33,NNE,23,0.0,0.0,97,0.00,,,0.00,WUHU216HW,2013-01-19 04:39:00,
2013-01-18 20:44:00,34.1,33.3,30.33,North,0,0.0,0.0,97,0.00,,,0.00,WUHU216HW,2013-01-19 04:44:00,
2013-01-18 20:49:00,34.0,33.2,30.33,North,0,0.0,0.0,97,0.00,,,0.00,WUHU216HW,2013-01-19 04:49:00,
2013-01-18 20:54:00,33.8,33.0,30.33,NNW,338,0.0,0.0,97,0.00,,,0.00,WUHU216HW,2013-01-19 04:54:00,
2013-01-18 20:59:00,34.0,33.2,30.33,NW,315,0.0,0.0,97,0.00,,,0.00,WUHU216HW,2013-01-19 04:59:00,
2013-01-18 21:01:00,34.0,33.2,30.33,NW,315,0.0,0.0,97,0.00,,,0.00,WUHU216HW,2013-01-19 05:01:00,
2013-01-18 21:03:00,34.0,33.2,30.33,NW,315,0.0,0.0,97,0.00,,,0.00,WUHU216HW,2013-01-19 05:03:00,
2013-01-18 21:04:00,33.8,33.0,30.33,NW,315,0.0,0.0,97,0.00,,,0.00,WUHU216HW,2013-01-19 05:04:00,
2013-01-18 21:09:00,33.8,33.0,30.33,NW,315,0.0,0.0,97,0.00,,,0.00,WUHU216HW,2013-01-19 05:09:00,
2013-01-18 21:14:00,33.8,33.0,30.34,NW,315,0.0,0.0,97,0.00,,,0.00,WUHU216HW,2013-01-19 05:14:00,
2013-01-18 21:19:00,33.8,33.0,30.34,NW,315,0.0,0.0,97,0.00,,,0.00,WUHU216HW,2013-01-19 05:19:00,
2013-01-18 21:24:00,33.6,32.8,30.34,NW,315,0.0,0.0,97,0.00,,,0.00,WUHU216HW,2013-01-19 05:24:00,
2013-01-18 21:29:00,33.6,32.8,30.34,NW,315,0.0,0.0,97,0.00,,,0.00,WUHU216HW,2013-01-19 05:29:00,
2013-01-18 21:34:00,33.6,32.8,30.34,NW,315,0.0,0.0,97,0.00,,,0.00,WUHU216HW,2013-01-19 05:34:00,
2013-01-18 21:39:00,33.6,32.8,30.34,NW,315,0.0,0.0,97,0.00,,,0.00,WUHU216HW,2013-01-19 05:39:00,
2013-01-18 21:44:00,33.6,32.8,30.34,NW,315,0.0,0.0,97,0.00,,,0.00,WUHU216HW,2013-01-19 05:44:00,
2013-01-18 21:49:00,33.8,33.0,30.34,NW,315,0.0,0.0,97,0.00,,,0.00,WUHU216HW,2013-01-19 05:49:00,
2013-01-18 21:54:00,33.6,32.8,30.34,NW,315,0.0,0.0,97,0.00,,,0.00,WUHU216HW,2013-01-19 05:54:00,
2013-01-18 21:59:00,33.6,32.8,30.34,NW,315,0.0,0.0,97,0.00,,,0.00,WUHU216HW,2013-01-19 05:59:00,
2013-01-18 22:04:00,33.6,32.8,30.35,NNE,23,0.4,0.4,97,0.00,,,0.00,WUHU216HW,2013-01-19 06:04:00,
2013-01-18 22:09:00,33.6,32.8,30.35,NNE,23,0.8,0.8,97,0.00,,,0.00,WUHU216HW,2013-01-19 06:09:00,
2013-01-18 22:15:00,33.4,32.4,30.34,North,0,0.0,0.8,96,0.00,,,0.00,WUHU216HW,2013-01-19 06:15:00,
2013-01-18 22:20:00,33.4,32.4,30.34,North,0,0.0,0.0,96,0.00,,,0.00,WUHU216HW,2013-01-19 06:20:00,
2013-01-18 22:25:00,33.2,32.2,30.34,North,0,0.0,4.0,96,0.00,,,0.00,WUHU216HW,2013-01-19 06:25:00,
2013-01-18 22:30:00,33.2,32.2,30.34,WNW,293,0.0,4.0,96,0.00,,,0.00,WUHU216HW,2013-01-19 06:30:00,
2013-01-18 22:35:00,33.2,32.2,30.34,WNW,293,0.0,0.0,96,0.00,,,0.00,WUHU216HW,2013-01-19 06:35:00,
2013-01-18 22:40:00,33.2,32.2,30.34,WNW,293,0.0,0.0,96,0.00,,,0.00,WUHU216HW,2013-01-19 06:40:00,
2013-01-18 22:45:00,33.2,32.2,30.34,WNW,293,0.0,0.0,96,0.00,,,0.00,WUHU216HW,2013-01-19 06:45:00,
2013-01-18 22:50:00,33.1,32.1,30.35,NNE,23,0.0,0.0,96,0.00,,,0.00,WUHU216HW,2013-01-19 06:50:00,
2013-01-18 22:55:00,33.1,32.1,30.34,NNE,23,0.0,0.0,96,0.00,,,0.00,WUHU216HW,2013-01-19 06:55:00,
2013-01-18 23:00:00,32.9,31.9,30.34,North,0,4.0,4.2,96,0.00,,,0.00,WUHU216HW,2013-01-19 07:00:00,
2013-01-18 23:05:00,32.9,32.1,30.34,NNW,338,0.0,4.2,97,0.00,,,0.00,WUHU216HW,2013-01-19 07:05:00,
2013-01-18 23:10:00,32.9,32.1,30.34,NNW,338,0.0,0.0,97,0.00,,,0.00,WUHU216HW,2013-01-19 07:10:00,
2013-01-18 23:15:00,32.9,32.1,30.34,NW,315,0.0,0.0,97,0.00,,,0.00,WUHU216HW,2013-01-19 07:15:00,
2013-01-18 23:20:00,32.9,32.1,30.34,NW,315,0.0,0.0,97,0.00,,,0.00,WUHU216HW,2013-01-19 07:20:00,
2013-01-18 23:25:00,32.9,32.1,30.35,NW,315,0.0,0.0,97,0.00,,,0.00,WUHU216HW,2013-01-19 07:25:00,
2013-01-18 23:30:00,32.9,32.1,30.34,WNW,293,0.0,0.0,97,0.00,,,0.00,WUHU216HW,2013-01-19 07:30:00,
2013-01-18 23:35:00,32.9,32.1,30.35,NNW,338,0.0,0.0,97,0.00,,,0.00,WUHU216HW,2013-01-19 07:35:00,
2013-01-18 23:40:00,32.9,32.1,30.35,NNW,338,0.0,0.0,97,0.00,,,0.00,WUHU216HW,2013-01-19 07:40:00,
2013-01-18 23:45:00,32.9,32.1,30.35,NNW,338,0.0,0.0,97,0.00,,,0.00,WUHU216HW,2013-01-19 07:45:00,
2013-01-18 23:50:00,32.9,32.1,30.35,NNW,338,0.0,0.0,97,0.00,,,0.00,WUHU216HW,2013-01-19 07:50:00,
2013-01-18 23:55:00,32.9,32.1,30.35,NNW,338,0.0,0.0,97,0.00,,,0.00,WUHU216HW,2013-01-19 07:55:00,